Back to catalog

WESTAR 1

AliveCommunicationsGEO
NORAD 7250·PAYLOAD·🇺🇸 United States

Launched Apr 13, 1974 from Cape Canaveral Space Force Station

Loading…

TLE

FreshSource: Space-Track

Epoch: Sep 14, 2026, 13:26 UTC

1 07250U 74022A   26257.56030979  .00000095  00000-0  00000-0 0  9994
2 07250   6.9095 297.3389 0003613  27.1140  95.6297  0.99894165123223

Track WESTAR 1 in real time with AllMySat

Download on the App Store